Sierra Vista, AZ

1:18 AM MST on October 18, 2017 (GMT -0700)
Sierra Vista Municipal-Libby Army Air Field

Weather History for KFHU - March, 2013

Change the Weather History Date:

Thursday, March 7, 2013

  Actual Average Record
Temperature  
Mean Temperature 58 °F -  
Max Temperature 69 °F 65 °F 81 °F (1989)
Min Temperature 48 °F 42 °F 29 °F (1984)
Degree Days  
Heating Degree Days 6    
Growing Degree Days 8 (Base 50)    
Moisture  
Dew Point 21 °F    
Average Humidity 25    
Maximum Humidity 40    
Minimum Humidity 11    
Precipitation  
Precipitation 0.00 in - - ()
Sea Level Pressure  
Sea Level Pressure 29.91 in    
Wind  
Wind Speed 6 mph (SSW)    
Max Wind Speed 22 mph    
Max Gust Speed 29 mph    
Visibility 10 miles    
Events      
Averages and records for this station are not official NWS values.
T = Trace of Precipitation, MM = Missing Value Source: NWS Daily Summary

Daily Weather History Graph

Daily Weather History Graph

Search for Another Location

Airport or City:

Trip Planner

Search our weather history database for the weather conditions in past years. The results will help you decide how hot, cold, wet, or windy it might be!

Date:

Astronomy

Mar. 07, 2013 Rise Set
Actual Time 6:40 AM MST 6:24 PM MST
Civil Twilight 6:16 AM MST 6:48 PM MST
Nautical Twilight 5:48 AM MST 7:16 PM MST
Astronomical Twilight 5:20 AM MST 7:44 PM MST
Moon 3:30 AM MST (3/7) 2:27 PM MST (3/7)
Length of Visible Light 12h 31m
Length of Day
11h 43m
Waning Crescent, 19% of the Moon is Illuminated
Mar 7
Waning Crescent
Mar 11
New
Mar 19
First Quarter
Mar 27
Full
Apr 2
Last Quarter

Hourly Weather History & Observations

Time (MST) Temp. Dew Point Humidity Pressure Visibility Wind Dir Wind Speed Gust Speed Precip Events Conditions
12:55 AM 51.8 °F 24.8 °F 35% 29.91 in 10.0 mi Calm Calm - N/A   Clear
1:55 AM 50.0 °F 24.8 °F 37% 29.89 in 10.0 mi Variable 3.5 mph - N/A   Clear
2:55 AM 50.0 °F 24.8 °F 37% 29.88 in 10.0 mi SSE 3.5 mph - N/A   Clear
3:55 AM 51.8 °F 24.8 °F 35% 29.87 in 10.0 mi NW 3.5 mph - N/A   Clear
4:55 AM 48.2 °F 24.8 °F 40% 29.89 in 10.0 mi Calm Calm - N/A   Clear
5:55 AM 48.2 °F 24.8 °F 40% 29.91 in 10.0 mi ESE 3.5 mph - N/A   Partly Cloudy
6:55 AM 48.2 °F 24.8 °F 40% 29.94 in 10.0 mi Calm Calm - N/A   Partly Cloudy
7:55 AM 55.4 °F 24.8 °F 31% 29.93 in 10.0 mi East 3.5 mph - N/A   Partly Cloudy
8:55 AM 57.2 °F 23.0 °F 27% 29.95 in 10.0 mi North 3.5 mph - N/A   Clear
9:55 AM 62.6 °F 21.2 °F 20% 29.94 in 10.0 mi Variable 5.8 mph - N/A   Clear
10:55 AM 64.4 °F 15.8 °F 15% 29.93 in 10.0 mi Calm Calm - N/A   Partly Cloudy
11:55 AM 69.8 °F 17.6 °F 14% 29.92 in 10.0 mi WSW 17.3 mph 20.7 mph N/A   Partly Cloudy
12:55 PM 69.8 °F 21.2 °F 16% 29.92 in 10.0 mi WSW 16.1 mph 23.0 mph N/A   Partly Cloudy
1:55 PM 69.8 °F 12.2 °F 11% 29.89 in 10.0 mi SSW 16.1 mph 28.8 mph N/A   Scattered Clouds
2:55 PM 69.8 °F 15.8 °F 13% 29.88 in 10.0 mi WSW 21.9 mph 26.5 mph N/A   Mostly Cloudy
3:55 PM 68.0 °F 15.8 °F 13% 29.89 in 10.0 mi SSW 18.4 mph 25.3 mph N/A   Mostly Cloudy
4:55 PM 66.2 °F 15.8 °F 14% 29.89 in 10.0 mi SSW 17.3 mph - N/A   Mostly Cloudy
5:55 PM 64.4 °F 17.6 °F 16% 29.91 in 10.0 mi SW 9.2 mph 20.7 mph N/A   Mostly Cloudy
6:55 PM 60.8 °F 19.4 °F 20% 29.92 in 10.0 mi SW 8.1 mph - N/A   Mostly Cloudy
7:55 PM 59.0 °F 17.6 °F 20% 29.93 in 10.0 mi SSW 6.9 mph - N/A   Mostly Cloudy
8:55 PM 57.2 °F 19.4 °F 23% 29.94 in 10.0 mi SSW 12.7 mph - N/A   Scattered Clouds
9:55 PM 53.6 °F 19.4 °F 26% 29.92 in 10.0 mi South 11.5 mph - N/A   Scattered Clouds
10:55 PM 55.4 °F 21.2 °F 26% 29.90 in 10.0 mi South 8.1 mph - N/A   Partly Cloudy
11:55 PM 55.4 °F 23.0 °F 29% 29.89 in 10.0 mi South 8.1 mph - N/A   Mostly Cloudy